Location: Branche des Alpilles
(43.6087°N, 4.6976°E)
Time: 09:04:39
(UTC+00:00)

N. Korean satellite - Pass Details

Date: 02 October 2021
Orbit: 450 x 495 km, 97.3° (Epoch: 15 October)

Event Time Altitude Azimuth Distance (km) Brightness Sun altitude
Rises 04:56:08 0° 13° (NNE) 2,551 10.4 -8.8°
Reaches altitude 10° 04:58:12 10° 15° (NNE) 1,674 9.5 -8.4°
Maximum altitude 05:01:49 78° 101° (ESE) 504 6.8 -7.7°
Drops below altitude 10° 05:05:26 10° 189° (S) 1,680 9.2 -7.1°
Sets 05:07:30 0° 191° (S) 2,561 10.1 -6.7°
